Meteo Giornale » Osservazioni meteo Danimarca » Karup

ore: 14:20 - Osservazioni Meteo Karup
Lat. 56° 18' N Lon. 9° 7' E Alt. 52 metri s.l.m.

molto_nuvoloso

19 °C

Molto Nuvoloso

Temp. 24 Ore

12 °C

19 °C

Ovest/Nord-Ovest

24 Km/h

Dew point 13 °C

Umidità 68 %

Visibilità  10 Km

Il sole sorge alle ore 06:27

Il sole tramonta alle ore 20:19

Data e Ora Cielo e Fenomeni T °C DP °C Um. % Pres. hPa Vis. km Vento km/h
Oggi h: 14:20 molto_nuvoloso Molto Nuvoloso 19 13 68 1012 10 O/NO 24
Oggi h: 13:50 molto_nuvoloso Molto Nuvoloso 19 13 68 1012 10 O 22.2
Oggi h: 13:20 molto_nuvoloso Molto Nuvoloso 18 13 72 1012 10 O 22.2
Oggi h: 12:50 nuvoloso Nuvoloso 19 13 68 1012 10 O/NO 25.9
Oggi h: 12:20 nuvoloso Nuvoloso 19 13 68 1012 10 O/NO 18.5
Oggi h: 11:50 molto_nuvoloso Molto Nuvoloso 18 13 72 1011 10 O 22.2
Oggi h: 11:20 molto_nuvoloso Molto Nuvoloso 19 14 72 1011 10 O 16.7
Oggi h: 10:50 molto_nuvoloso Molto Nuvoloso 18 14 77 1011 10 O 16.7
Oggi h: 10:25 molto_nuvoloso Molto Nuvoloso 17 14 82 1011 10 O/NO 16.7
Oggi h: 10:20 nuvoloso Nuvoloso 17 14 82 1011 10 O 13
Oggi h: 09:50 nuvoloso Nuvoloso 16 15 93 1011 10 O 14.8
Oggi h: 09:31 molto_nuvoloso Molto Nuvoloso 16 15 93 1011 10 O 11.1
Oggi h: 09:29 molto_nuvoloso Molto Nuvoloso 16 15 93 1011 8 O 9.3
Oggi h: 09:20 nuvoloso Nuvoloso 16 15 93 1010 8 O/SO 7.4
Oggi h: 08:51 nuvoloso Nuvoloso 15 15 100 1010 8 O/SO 11.1
Oggi h: 08:20 foschia Foschia 14 14 100 1010 4 O/SO 7.4
Oggi h: 07:50 nebbia Banco di nebbia 14 14 100 1010 3 SO 11.1
Oggi h: 07:33 nebbia Banco di nebbia 14 14 100 1010 3 SO 9.3
Oggi h: 07:20 molto_nuvoloso Molto Nuvoloso 14 14 100 1010 5 SO 7.4
Oggi h: 06:50 foschia Foschia Nebbia 13 13 100 1010 4 SO 7.4
Oggi h: 06:46 foschia Foschia Nebbia 13 13 100 1010 4 SO 9.3
Oggi h: 06:20 nebbia Banco di nebbia 12 12 100 1009 1 N 5.5
Oggi h: 05:50 nebbia Nebbia 13 13 100 1009 0.9 SO 7.4
Oggi h: 05:20 nebbia Banco di nebbia Foschia 12 12 100 1009 3 SO 7.4
Oggi h: 04:50 nebbia Nebbia 12 12 100 1009 0.3 N 5.5
Oggi h: 04:45 nebbia Nebbia 12 12 100 1009 0.8 N 5.5
Oggi h: 04:44 foschia Foschia 12 12 100 1009 2 N 5.5
Oggi h: 04:43 foschia Foschia 12 12 100 1009 3 N 5.5
Oggi h: 04:39 foschia Foschia 12 12 100 1009 3 N 5.5
Oggi h: 04:37 foschia Foschia 12 12 100 1009 3 S/SO 7.4
Oggi h: 04:32 foschia Foschia 12 12 100 1009 2 N 5.5
Oggi h: 04:23 nebbia Nebbia 13 12 93 1009 0.75 SO 7.4
Oggi h: 04:20 foschia Foschia 13 12 93 1009 1 SO 7.4
Oggi h: 04:15 foschia Foschia 13 13 100 1009 1 SO 9.3
Oggi h: 04:04 foschia Foschia 13 13 100 1009 1 O/SO 9.3
Oggi h: 04:01 foschia Foschia 13 13 100 1009 1 O/SO 9.3
Oggi h: 03:58 foschia Foschia 13 13 100 1009 3 O/SO 9.3
Oggi h: 03:52 foschia Foschia 13 13 100 1009 5 O/SO 9.3
Oggi h: 03:50 foschia Foschia 13 13 100 1009 5 O/SO 9.3
Oggi h: 03:30 foschia Foschia 13 13 100 1009 2 O/SO 9.3
Oggi h: 03:28 foschia Foschia 13 13 100 1009 2 O/SO 7.4
Oggi h: 03:20 foschia Foschia 13 13 100 1009 1 N 5.5
Oggi h: 03:15 nebbia Nebbia 13 13 100 1009 0.4 N 5.5
Oggi h: 03:14 nebbia Nebbia 13 13 100 1009 0.75 N 5.5
Oggi h: 03:13 foschia Foschia 13 13 100 1009 2 N 5.5
Oggi h: 03:12 foschia Foschia 13 13 100 1009 3 N 5.5
Oggi h: 03:08 foschia Foschia 13 13 100 1009 5 N 5.5
Oggi h: 02:59 nebbia Banco di nebbia 13 13 100 1009 2 N 5.5
Oggi h: 02:57 nebbia Banco di nebbia 13 13 100 1009 2 O 7.4
Oggi h: 02:54 nebbia Banco di nebbia 13 13 100 1009 4 O 7.4
Oggi h: 02:53 nebbia Nebbia 13 13 100 1008 6 O 7.4
Oggi h: 02:50 nebbia Banco di nebbia 13 13 100 1008 5 N 5.5
Oggi h: 02:46 nebbia Nebbia 13 13 100 1008 6 N 5.5
Oggi h: 02:36 nuvoloso Nuvoloso 13 13 100 1008 6 O 7.4
Oggi h: 02:20 poco_nuvoloso Poco Nuvoloso 13 13 100 1008 10 O/SO 9.3
Oggi h: 01:50 molto_nuvoloso Molto Nuvoloso 14 13 93 1008 10 O 11.1
Oggi h: 01:20 molto_nuvoloso Molto Nuvoloso 14 13 93 1008 10 O 9.3
Oggi h: 00:50 coperto Coperto 14 14 100 1008 10 O/SO 7.4
Oggi h: 00:20 coperto Coperto 13 13 100 1008 10 N 5.5
Ieri h: 23:50 molto_nuvoloso Molto Nuvoloso 13 13 100 1008 10 N 5.5
Ieri h: 23:20 nebbia Nebbia 12 12 100 1008 10 N 3.7
Ieri h: 22:50 nebbia Banco di nebbia Nebbia 13 13 100 1007 3 N 1.8
Ieri h: 22:20 nebbia Banco di nebbia Nebbia 13 13 100 1007 3 N 3.7
Ieri h: 22:00 nebbia Banco di nebbia Nebbia 13 13 100 1007 3 N 3.7
Ieri h: 21:50 nebbia Nebbia 13 12 93 1007 10 N 1.8
Ieri h: 21:20 nebbia Nebbia 14 14 100 1007 10 N 0
Ieri h: 20:50 sereno Sereno 15 14 93 1007 10 N 3.7
Ieri h: 20:20 nuvoloso Nuvoloso 15 14 93 1006 10 N 3.7
Ieri h: 19:50 nuvoloso Nuvoloso 16 14 87 1006 10 N 5.5
Ieri h: 19:29 nuvoloso Nuvoloso 16 14 87 1006 10 NO 11.1
Ieri h: 19:20 molto_nuvoloso Molto Nuvoloso 16 14 87 1006 10 NO 14.8
Ieri h: 18:50 coperto_pioggia Pioggia 17 16 93 1005 10 N 3.7
Ieri h: 18:42 molto_nuvoloso Molto Nuvoloso 17 16 93 1005 10 N 5.5
Ieri h: 18:25 nuvoloso_piovaschi Pioggia 16 15 93 1005 3 S 7.4
Ieri h: 18:21 nuvoloso_piovaschi Pioggia 17 15 88 1005 7 S/SE 7.4
Ieri h: 18:20 coperto_pioggia Pioggia 17 15 88 1005 5 S/SE 9.3
Ieri h: 18:17 nuvoloso_piovaschi Pioggia 17 15 88 1005 7 S/SE 9.3
Ieri h: 17:50 coperto_pioggia Pioggia 17 15 88 1005 10 S/SO 7.4
Ieri h: 17:40 coperto_pioggia Pioggia 18 14 77 1005 6 SO 7.4
Ieri h: 17:34 nuvoloso_piovaschi Pioggia 18 14 77 1005 7 N 3.7
Ieri h: 17:20 molto_nuvoloso Molto Nuvoloso 18 14 77 1005 10 N 5.5
Ieri h: 16:50 coperto Coperto 19 14 72 1005 10 O/SO 7.4
Ieri h: 16:20 molto_nuvoloso Molto Nuvoloso 18 14 77 1005 10 S/SO 11.1
Ieri h: 15:50 molto_nuvoloso Molto Nuvoloso 18 14 77 1005 10 O 9.3
Ieri h: 15:20 coperto_pioggia Pioggia 17 14 82 1005 10 O/SO 14.8
Ieri h: 15:14 nuvoloso_piovaschi Pioggia 17 14 82 1005 7 O/SO 16.7
Ieri h: 15:06 nuvoloso_piovaschi Pioggia 17 14 82 1005 7 SO 16.7
Ieri h: 14:50 coperto_pioggia Pioggia 17 15 88 1005 10 SO 13
Ieri h: 14:37 molto_nuvoloso Molto Nuvoloso 17 14 82 1005 8 SO 16.7